Wind_Speed
9 9 9 9 11 12 12 11 11 11 11 12 13 14 14 15 16 17 17 16 16 16 16 16 16 16 16 16 15 15 15 16 16 16 16 16 17 17 18 18 18 19 20 20 19 19 18 18 18 18 18 18 18 18 18 19 20 21 21 22 25 27 27 25 23 20 18 16 14
11 11 11 12 14 13 12 12 12 12 13 13 14 15 15 16 17 17 17 16 16 16 16 17 17 16 16 16 16 16 16 16 17 18 18 18 18 18 18 19 20 21 21 20 20 20 19 19 18 18 18 19 20 20 20 20 22 23 22 21 23 23 22 20 17 14 11 9 8
12 12 12 12 12 12 12 13 13 14 14 15 15 16 17 17 17 17 17 16 17 17 17 17 17 17 17 17 17 17 17 18 18 19 19 19 19 19 19 19 20 21 21 21 21 21 20 20 19 19 19 20 20 21 20 20 20 19 17 16 18 18 17 14 11 9 7 7 6
12 11 11 12 12 12 13 14 14 15 15 16 16 17 17 17 17 17 17 17 17 17 17 17 18 18 18 18 18 19 19 19 19 20 20 21 21 20 20 20 20 21 21 21 21 21 21 20 20 21 21 20 20 19 19 18 17 15 14 12 12 12 11 9 9 8 7 7 7
12 11 12 12 13 13 13 14 15 15 16 16 17 17 17 17 17 17 17 18 18 18 18 19 19 19 19 19 19 19 19 20 20 20 21 21 21 21 21 21 21 21 21 22 22 22 21 21 21 21 20 19 18 18 17 16 15 13 12 11 10 9 8 7 7 7 7 7 8
13 13 13 13 14 14 15 15 16 16 17 17 17 18 18 18 18 18 19 19 19 19 20 20 20 20 19 19 19 20 20 20 21 20 20 21 21 21 21 21 21 22 22 22 22 22 21 21 20 20 19 18 17 17 16 14 13 12 12 11 10 9 8 8 8 8 8 9 9
13 14 15 15 16 16 16 16 17 17 18 18 18 18 19 19 19 19 20 20 20 20 20 20 19 19 19 19 19 20 21 21 21 20 20 21 22 22 22 22 22 22 23 23 22 22 21 20 19 18 17 17 16 15 14 14 13 12 12 11 10 10 9 8 9 9 10 10 10
14 15 16 17 17 17 17 18 18 18 18 18 18 19 19 19 19 20 20 20 20 20 19 19 19 19 20 20 20 20 21 21 21 21 21 22 22 22 22 22 22 22 23 23 22 22 20 19 18 17 16 16 15 14 14 14 13 13 12 11 11 11 10 10 10 10 11 11 12
15 16 17 17 17 18 18 19 19 19 19 19 19 19 19 20 20 20 20 20 20 19 19 19 20 20 20 20 20 21 21 21 21 21 21 21 21 22 21 21 21 21 21 21 21 22 21 20 19 19 18 17 16 15 14 14 13 13 13 12 12 12 12 12 12 12 12 13 13
16 17 17 17 18 18 19 19 19 19 19 19 19 20 20 20 21 20 20 19 19 19 19 20 20 20 20 20 21 21 21 21 21 21 21 21 21 20 20 19 19 19 18 18 19 20 21 22 22 22 21 20 19 18 16 15 14 14 13 13 12 13 13 14 14 14 14 14 15
16 16 17 18 18 19 19 19 19 19 19 19 20 20 20 20 20 19 19 19 19 19 20 20 20 19 19 19 19 20 20 20 20 19 18 17 17 17 18 18 18 18 17 17 18 20 22 25 26 25 24 23 21 20 18 17 16 15 15 14 14 15 15 16 16 17 17 17 17
16 17 17 18 18 19 19 19 20 20 20 20 20 20 20 19 18 18 18 18 18 18 19 18 18 18 17 17 17 17 18 18 17 16 16 16 16 16 17 17 18 19 20 21 23 25 28 30 30 28 25 24 23 21 20 18 17 16 16 16 15 16 17 18 19 19 19 19 19
16 17 18 18 19 19 20 20 20 20 20 20 20 19 19 18 17 16 16 17 17 17 17 16 16 16 16 15 15 14 15 15 15 16 16 17 17 17 18 19 20 22 24 27 30 31 31 31 29 27 26 24 23 21 19 18 17 16 17 17 18 18 20 21 21 21 20 20 20
18 18 19 19 19 20 20 20 21 20 19 19 19 18 18 17 16 15 16 16 15 15 15 16 15 15 15 14 15 15 15 16 16 17 17 18 18 19 21 23 24 26 28 30 32 32 30 29 27 26 24 22 19 17 15 14 15 15 16 17 19 20 21 21 21 21 21 20 20
19 19 20 20 20 20 20 20 19 18 17 17 17 17 17 16 15 15 15 15 15 15 15 15 15 15 16 16 16 18 19 18 19 19 20 21 22 24 26 27 29 29 30 31 31 31 29 28 27 26 23 19 15 12 11 11 12 13 15 16 17 18 18 18 18 18 18 19 19
20 20 20 19 19 19 18 17 17 16 16 15 15 14 14 13 14 14 15 17 17 18 17 16 16 17 18 19 20 22 23 24 23 23 24 26 28 30 31 31 32 32 32 31 30 29 28 27 26 26 24 20 17 15 13 14 14 15 15 16 16 16 16 16 16 16 16 17 18
19 19 19 18 17 17 16 16 16 16 16 14 13 12 11 12 12 12 14 18 21 21 21 20 20 21 22 23 23 24 26 27 26 27 29 31 32 32 31 31 30 29 28 27 26 25 24 24 24 23 22 21 19 18 18 17 17 18 18 18 18 18 18 18 17 17 17 18 19
18 18 17 16 17 16 15 16 16 15 14 12 11 11 12 12 13 13 14 18 22 24 23 22 23 24 25 25 25 26 27 29 29 30 31 31 30 29 27 26 24 23 22 22 21 20 20 21 21 21 20 20 20 20 20 20 20 21 21 22 23 24 24 23 22 21 21 21 21
17 17 17 16 16 15 14 15 14 13 12 11 11 12 12 13 14 14 14 16 20 23 24 24 24 24 24 25 25 26 27 28 28 28 27 26 25 24 23 22 21 20 19 19 19 19 19 20 20 21 22 23 23 24 24 24 25 25 26 27 27 27 27 26 25 23 23 22 22
17 17 17 16 15 14 13 13 12 12 12 12 12 12 12 13 14 14 15 17 20 23 23 23 23 23 23 23 24 24 24 24 23 23 23 22 21 21 20 20 20 20 19 19 19 20 20 21 21 22 23 24 25 25 26 26 27 27 27 27 26 26 25 24 23 22 21 21 21
16 16 17 16 15 14 13 12 12 12 12 11 12 12 13 13 13 15 17 20 22 22 22 22 22 21 21 20 20 20 20 20 20 20 20 20 20 20 20 20 20 20 20 19 19 19 19 20 20 21 22 22 23 24 24 24 24 23 23 22 22 22 22 21 21 20 20 20 20
18 17 17 16 15 14 13 12 12 12 12 12 12 12 12 13 13 15 19 21 22 22 21 21 20 19 18 18 18 18 18 18 18 19 19 19 19 19 19 19 19 19 19 18 18 17 18 18 19 19 20 20 21 21 21 20 20 19 19 19 20 20 21 21 21 20 20 20 21
19 18 17 16 15 14 13 12 12 13 13 12 12 11 12 14 16 18 21 21 21 21 20 20 19 19 18 18 18 18 18 18 18 17 17 17 17 17 17 17 17 17 17 16 16 16 17 18 19 19 19 19 19 19 18 18 17 17 18 18 19 20 20 20 21 21 21 21 21
20 19 18 17 16 15 15 15 14 13 12 11 10 10 11 15 17 19 20 20 19 19 18 18 17 17 18 18 18 17 16 16 15 15 15 15 15 15 15 15 15 15 15 15 15 17 19 20 20 20 20 20 20 19 19 18 18 17 18 18 19 20 20 20 21 21 22 22 23
21 20 19 18 17 17 16 16 14 12 10 9 8 8 10 13 15 16 16 15 15 16 16 16 15 15 16 16 16 15 15 14 14 14 14 14 15 15 14 15 14 14 14 14 16 19 21 22 22 22 22 21 21 21 21 20 19 19 19 19 19 20 20 21 21 22 22 22 23
21 21 20 19 18 17 16 14 12 10 9 8 8 8 9 10 11 12 12 11 12 13 14 14 14 15 15 15 14 14 14 14 14 14 14 15 15 15 15 15 15 14 14 15 18 20 22 23 23 23 23 22 22 22 22 21 21 20 20 20 20 20 21 21 22 22 22 22 22
21 20 19 18 17 17 15 13 11 10 9 8 8 9 10 9 9 10 11 12 12 13 13 14 14 14 14 14 14 14 14 14 14 14 14 14 15 15 15 15 15 15 15 17 19 21 22 23 24 24 24 23 23 23 23 23 22 22 21 21 20 21 21 21 22 22 22 22 22
21 20 19 17 17 16 14 12 10 9 9 8 8 9 9 9 10 11 12 12 13 13 13 13 13 13 13 14 14 14 15 14 14 14 14 14 14 15 15 15 15 16 17 19 20 21 22 23 24 24 24 24 24 24 24 24 24 23 23 22 21 21 21 21 22 22 22 22 22
22 20 18 16 16 14 12 11 10 9 9 9 9 9 10 10 11 12 12 13 13 13 12 12 13 13 14 14 15 15 15 14 14 14 14 14 14 15 15 15 15 16 17 19 20 22 23 24 25 25 25 25 25 25 25 25 25 24 24 23 22 21 21 21 22 22 22 22 22
22 19 17 15 14 13 12 10 9 9 9 9 9 10 10 11 12 12 13 13 13 13 12 12 13 14 15 15 16 15 15 15 14 14 14 15 15 16 16 16 15 16 17 20 21 22 23 25 26 26 26 26 26 25 25 25 25 25 25 25 24 23 22 22 22 23 22 22 22
21 18 16 14 13 12 11 10 9 9 9 9 10 10 11 12 12 13 13 14 14 13 13 13 14 15 16 16 16 16 16 15 15 15 15 15 16 16 16 16 16 16 17 20 21 22 24 25 26 27 27 27 26 26 26 26 26 26 26 26 26 25 24 23 23 23 22 22 22
20 18 16 13 12 11 11 10 10 10 10 10 10 11 11 12 13 13 14 14 14 14 14 14 15 16 17 17 17 17 16 16 15 15 16 16 17 17 17 17 17 16 17 20 22 23 25 26 27 27 27 27 27 27 27 27 27 27 27 26 25 24 23 23 23 23 22 22 22
19 17 15 13 12 11 11 10 10 10 10 11 11 11 12 13 13 14 14 14 14 14 15 15 16 17 18 18 18 17 17 16 16 16 17 17 18 18 18 17 17 17 18 21 22 24 25 27 27 27 27 27 27 27 27 27 27 27 26 24 23 23 23 23 23 22 22 22 22
20 18 16 14 13 12 11 11 11 11 11 11 11 12 12 13 14 14 15 15 15 15 15 16 17 18 19 18 18 18 17 17 17 17 18 19 19 19 19 18 17 18 20 21 23 24 26 27 27 27 27 27 27 27 27 27 27 26 24 23 23 23 22 22 22 22 22 22 21
18 16 15 14 13 12 11 11 11 11 11 11 11 12 13 13 14 15 15 15 15 16 17 18 18 19 19 19 18 18 18 18 18 19 19 19 19 19 19 19 18 18 19 21 23 25 26 27 27 27 26 26 26 26 27 26 26 24 23 22 22 22 22 22 22 21 21 20 20
14 13 14 14 12 11 10 10 10 11 11 11 12 12 13 13 14 14 15 16 16 17 18 19 19 19 19 19 19 18 18 18 19 19 19 20 20 20 20 20 19 18 18 20 23 25 27 27 27 26 26 26 26 26 26 25 24 23 22 21 21 21 21 21 21 20 20 20 20
13 13 14 13 11 10 10 10 10 10 11 11 12 13 13 13 14 15 15 16 17 18 19 19 19 19 19 19 19 19 19 19 19 19 20 20 20 20 20 20 20 19 19 21 23 25 26 26 26 26 26 26 26 26 25 24 23 21 21 21 21 20 20 20 20 20 20 20 20
12 12 12 12 10 9 9 10 10 10 11 11 12 12 13 13 14 15 16 17 18 18 19 19 19 20 20 20 19 19 19 19 20 20 20 20 20 20 20 21 21 21 22 22 23 23 24 25 25 26 26 25 25 25 24 23 22 21 21 20 20 20 20 20 19 19 19 20 20
11 11 11 10 9 9 9 10 10 11 11 11 12 12 13 14 15 16 17 17 18 18 19 20 20 20 20 20 19 19 19 20 20 20 20 20 21 21 22 23 24 23 23 22 21 21 22 24 25 26 26 25 25 24 23 22 21 21 21 21 20 20 19 19 19 19 19 19 19
12 12 11 9 9 9 9 10 10 10 11 11 12 13 14 15 15 16 17 17 18 19 19 20 20 20 20 19 19 19 20 20 20 20 20 20 21 23 24 25 24 23 21 20 19 20 21 23 25 26 26 25 24 23 22 21 21 21 21 20 20 20 19 19 19 19 19 19 20
14 13 10 8 8 8 9 10 10 10 11 11 12 13 14 15 16 16 17 18 19 19 20 20 20 20 20 19 19 20 20 21 21 21 21 21 21 22 23 23 22 20 19 18 18 19 21 23 25 26 26 25 24 23 21 20 20 20 20 20 20 20 20 20 20 20 20 20 20
Wind_Direction
286 288 289 290 293 296 299 299 299 300 303 305 305 305 304 303 302 301 300 300 299 299 299 298 297 296 295 294 292 291 291 291 291 291 291 290 290 291 292 291 291 291 290 289 287 286 285 285 285 284 284 283 283 283 282 281 283 284 285 286 289 290 290 288 288 288 288 288 288
285 286 287 291 295 298 299 298 299 300 302 303 303 304 304 303 302 300 299 298 297 297 298 298 297 296 295 294 293 292 291 292 293 293 293 292 291 291 291 290 291 291 291 289 287 285 284 283 283 283 283 283 283 283 283 282 283 284 284 284 286 287 286 285 285 285 286 286 285
285 286 289 293 295 296 297 298 298 299 301 302 302 303 303 303 302 300 299 298 297 297 297 298 298 297 296 294 294 293 293 293 294 294 293 292 291 291 291 291 291 290 289 288 287 285 283 282 282 282 283 283 282 282 282 281 281 282 282 281 282 282 281 278 278 278 278 276 273
287 289 292 295 296 297 298 298 299 300 301 302 303 304 304 303 302 301 300 299 298 298 298 298 299 298 297 295 294 294 294 294 294 294 293 292 292 292 292 291 290 290 288 287 286 284 282 280 280 282 282 282 280 280 280 278 277 276 274 272 273 275 275 273 271 270 269 270 271
288 290 294 297 299 300 300 300 301 301 302 303 303 303 303 302 302 301 300 300 298 298 298 298 298 298 296 294 294 294 295 295 294 293 293 293 293 293 293 292 291 290 288 287 286 285 282 280 279 280 280 279 277 277 276 274 271 268 265 260 260 260 261 260 259 260 261 262 272
288 291 296 299 300 301 301 301 302 302 303 303 303 302 302 301 301 300 300 298 297 296 297 297 297 297 296 295 294 294 294 295 294 293 292 293 293 294 294 294 292 291 289 289 288 286 283 280 279 279 278 276 274 273 272 267 262 260 259 259 259 257 253 248 252 258 261 261 267
289 293 296 299 300 301 301 302 303 304 304 303 302 302 301 301 300 299 298 297 296 295 295 295 295 295 295 294 293 293 293 293 292 292 291 292 292 292 292 291 290 290 289 289 288 286 283 280 278 277 276 274 271 268 265 260 256 254 256 260 265 267 267 261 264 267 270 271 273
293 295 297 298 300 301 302 303 304 304 304 304 303 302 301 301 300 299 299 297 295 294 293 293 293 294 294 293 293 292 292 291 290 290 290 291 291 290 289 288 288 288 288 288 287 286 283 280 278 277 275 273 269 264 259 256 254 252 253 256 261 266 269 270 269 270 271 273 274
296 297 298 299 301 303 304 304 305 305 305 304 304 303 303 302 301 300 299 298 295 293 292 292 292 293 293 293 293 293 292 291 290 290 290 290 289 289 288 288 288 289 289 290 289 287 284 282 281 279 277 273 269 265 261 256 254 252 251 253 258 263 266 267 267 267 267 269 270
298 299 300 302 303 305 306 306 306 306 306 305 305 305 304 303 302 301 299 297 296 295 294 293 294 294 294 294 295 294 293 292 291 291 291 292 292 291 292 293 295 296 297 296 293 290 286 284 282 280 278 275 272 268 265 261 257 255 254 255 258 261 264 266 267 267 267 266 267
302 303 304 306 307 307 308 308 308 307 307 307 307 306 306 304 303 301 300 299 298 297 296 296 296 295 295 296 295 294 293 292 292 293 295 297 298 298 299 299 300 300 300 297 292 289 286 284 282 280 278 276 274 271 269 265 262 259 259 259 261 262 263 265 266 268 269 268 268
306 307 307 308 308 309 310 310 309 308 308 307 307 307 306 305 304 303 302 301 300 300 300 299 298 298 298 299 298 296 294 293 293 294 296 297 299 300 300 298 296 294 291 288 286 285 285 284 282 280 277 276 274 272 270 268 265 263 262 263 264 265 266 268 269 269 268 268 267
308 309 310 309 309 310 310 309 309 308 307 307 307 307 306 305 305 304 304 303 302 303 303 302 301 301 301 303 302 301 298 295 295 295 294 294 296 296 295 292 290 287 285 284 284 285 285 284 280 278 277 278 277 274 271 270 269 267 267 267 269 269 270 271 270 269 268 266 263
309 309 310 310 310 310 309 309 308 307 307 306 306 305 305 303 303 303 302 301 301 303 304 304 304 303 302 303 299 296 294 292 292 291 290 291 292 290 288 286 286 285 285 285 285 286 285 282 278 276 278 282 283 282 279 277 274 271 269 269 270 271 270 269 268 267 265 263 259
309 309 309 309 309 309 309 309 308 307 306 306 305 305 304 302 301 301 299 296 298 300 302 304 304 302 299 296 294 290 288 288 287 288 289 288 288 286 285 287 287 288 288 288 287 286 283 279 275 272 272 275 278 281 281 276 271 267 265 265 266 267 266 265 264 263 262 260 259
309 310 310 310 309 309 309 309 308 307 308 308 308 308 308 305 303 302 299 295 297 300 301 301 300 297 294 293 292 290 289 289 288 288 288 288 288 289 289 291 291 291 291 290 289 286 283 278 272 268 265 263 261 263 264 262 259 257 257 259 262 266 268 267 267 266 265 264 264
310 311 311 310 310 309 308 308 308 309 310 310 312 313 313 311 309 306 302 299 301 302 303 301 299 297 296 296 296 296 294 293 293 291 291 291 292 294 295 296 296 295 294 293 291 288 283 277 272 267 264 262 261 263 264 263 262 262 263 267 272 278 281 282 281 280 277 275 273
311 311 311 310 310 308 307 307 309 311 313 313 314 313 312 311 310 310 309 305 305 306 306 305 303 302 301 302 302 301 299 298 296 294 294 295 297 298 299 300 300 299 299 298 296 292 288 283 279 276 275 275 277 278 279 279 279 279 280 283 287 290 292 293 292 289 285 282 278
308 309 310 309 308 306 305 307 309 311 311 311 310 308 307 306 307 309 311 310 310 309 308 307 306 305 304 304 303 302 301 300 299 298 299 300 300 301 301 301 301 301 300 299 298 296 294 292 290 289 289 289 290 291 291 291 291 291 292 293 294 295 295 295 293 291 288 284 280
304 306 308 308 306 304 303 305 307 308 307 306 305 302 301 303 304 305 306 308 309 310 310 308 307 307 306 305 305 304 303 303 303 304 305 305 305 306 306 305 305 304 303 302 300 299 298 297 297 297 297 297 298 298 299 299 300 300 299 299 298 298 298 297 295 292 288 285 282
301 304 306 305 303 300 299 300 303 304 304 304 304 303 302 303 304 304 305 308 310 311 311 310 309 309 309 310 310 310 311 311 312 314 315 315 315 315 315 314 314 313 312 310 308 307 307 307 307 307 307 307 307 308 308 309 308 307 304 301 301 301 301 299 296 292 288 284 281
300 302 303 303 301 298 297 298 301 304 304 304 305 304 302 301 302 305 308 312 313 313 313 312 313 314 315 318 320 321 322 324 326 326 326 325 324 324 323 322 321 320 318 316 314 314 315 316 317 317 317 316 316 315 315 314 311 307 302 298 299 298 297 296 293 289 285 280 277
300 302 303 304 302 300 299 300 303 304 304 303 304 302 298 296 299 306 311 314 315 315 315 317 318 320 322 326 329 331 332 333 333 332 330 328 326 325 324 322 318 316 314 310 309 309 312 315 318 319 318 316 315 314 312 308 306 302 297 294 292 290 289 288 286 284 280 277 276
301 302 304 305 304 303 302 303 303 303 302 301 301 298 294 296 302 309 314 317 318 318 320 322 322 322 325 328 330 332 332 331 327 325 323 320 318 317 316 314 310 307 304 302 299 301 307 312 316 317 316 314 312 310 308 305 303 299 294 290 288 287 285 284 282 280 279 278 277
300 301 302 303 302 302 302 303 302 300 298 298 299 297 297 300 307 312 317 319 320 321 323 324 321 319 321 324 325 326 324 320 316 313 312 311 310 309 308 307 305 303 299 295 294 300 307 313 316 317 316 314 312 310 309 307 304 300 295 291 290 289 287 285 284 282 281 280 279
298 298 299 300 300 300 300 300 298 295 294 295 297 299 301 304 308 312 315 316 316 317 318 318 316 314 315 318 319 318 316 314 311 309 309 309 308 307 307 306 304 303 299 293 295 301 307 311 314 315 315 314 312 311 309 307 304 301 298 295 292 290 289 287 286 285 283 282 280
297 296 296 297 298 297 297 294 292 291 291 293 295 298 300 301 304 306 309 309 310 311 312 314 313 312 313 315 315 313 312 310 309 308 307 307 307 307 307 306 306 304 299 294 295 299 303 307 309 311 312 312 311 309 307 305 303 301 298 296 293 290 289 287 287 286 285 283 282
296 294 294 294 295 294 291 289 287 286 288 291 293 296 297 299 302 305 306 306 307 309 311 312 313 313 312 312 312 311 310 309 308 307 307 307 306 306 306 306 306 305 300 295 294 295 298 301 305 308 310 310 309 308 306 304 303 302 299 296 293 290 288 288 287 286 285 284 283
293 292 290 290 290 287 284 283 281 281 284 288 291 294 296 299 303 304 305 305 306 307 309 311 313 314 314 312 311 311 310 309 308 307 307 307 307 306 306 305 306 305 300 295 293 293 294 298 302 306 308 309 308 307 305 304 303 301 300 297 294 290 288 287 286 286 285 285 284
290 289 286 284 283 280 277 276 276 277 281 286 288 292 296 300 302 304 305 305 305 305 306 309 312 314 314 313 312 311 310 309 308 307 307 307 307 307 306 306 307 305 299 294 291 291 293 297 301 305 307 308 308 306 305 304 303 301 300 297 295 292 289 287 286 285 284 284 283
286 284 281 278 276 273 271 271 272 276 280 285 288 292 296 300 302 304 305 305 304 303 305 308 311 313 314 314 312 311 309 308 307 307 307 308 307 307 307 306 307 305 298 293 291 291 293 297 301 304 306 307 307 306 304 304 303 302 301 299 297 294 291 287 285 285 284 283 283
282 278 275 273 271 269 267 268 271 275 279 283 287 292 296 299 302 304 305 305 304 304 305 308 310 312 314 314 313 311 309 307 306 306 307 307 307 307 307 306 307 304 297 292 291 291 293 297 300 303 305 306 306 305 304 304 303 303 302 301 298 295 291 287 285 284 284 283 283
276 272 269 270 269 267 265 266 270 274 278 282 286 291 295 299 302 304 305 305 305 305 307 308 310 312 312 313 312 311 309 307 306 306 307 308 308 307 306 306 307 303 296 293 292 292 294 297 300 303 304 305 305 305 304 304 304 304 303 299 294 291 289 287 285 284 284 283 282
272 268 267 268 267 265 264 267 271 274 277 281 286 291 295 299 302 304 305 306 306 307 307 308 309 310 310 311 310 310 308 307 306 306 307 308 308 307 306 306 306 303 299 296 294 293 295 298 301 303 305 306 306 305 305 305 305 305 301 294 290 289 288 287 285 284 283 283 281
267 265 266 266 264 262 264 268 270 272 276 281 287 292 296 300 303 304 305 307 307 308 308 308 308 309 309 309 309 309 308 308 307 307 307 307 307 306 306 306 305 304 302 298 296 296 298 301 304 306 307 308 308 307 307 307 306 303 298 292 290 289 288 287 287 285 284 283 281
260 260 262 262 260 260 263 267 268 271 276 282 289 294 299 302 304 305 307 308 309 308 308 308 309 309 309 309 309 308 308 308 308 307 306 306 306 306 306 306 305 304 301 297 296 298 301 304 307 309 310 311 311 310 310 309 306 302 297 293 291 290 290 289 288 287 285 283 281
258 259 260 259 257 258 261 263 266 271 278 284 292 297 301 304 306 307 308 310 310 310 309 309 310 310 310 309 309 308 307 308 308 308 307 306 306 306 305 304 303 302 299 297 297 300 304 307 309 312 313 314 314 314 312 309 304 299 296 293 292 291 290 289 288 287 285 283 281
262 259 257 254 254 256 258 261 266 274 282 289 295 301 305 307 308 309 310 310 310 310 310 310 310 310 310 309 308 307 307 308 309 308 307 306 305 304 303 303 302 302 302 302 302 304 306 308 310 312 315 316 317 316 313 309 303 299 295 293 293 292 291 290 289 287 285 283 282
261 254 251 249 251 255 259 264 270 278 286 294 300 305 308 309 309 309 310 310 309 310 310 310 310 310 310 309 308 308 308 309 309 309 308 307 304 302 302 303 304 305 306 306 306 305 305 305 307 310 314 316 318 317 314 309 305 301 299 297 296 295 293 291 290 288 286 284 282
257 253 249 247 250 256 261 267 276 284 292 299 304 307 309 309 310 310 310 310 310 310 310 310 310 310 310 310 309 309 310 310 310 309 308 306 303 302 303 306 307 307 306 306 304 301 299 299 302 306 311 315 318 318 315 311 308 306 303 301 298 296 295 293 290 288 287 285 284
261 256 251 249 252 258 264 272 282 291 298 303 305 307 308 309 310 311 311 312 312 312 312 311 310 310 310 310 310 310 310 310 310 309 307 305 303 304 306 307 307 306 305 302 299 295 293 295 299 303 308 313 316 317 316 314 311 307 304 301 299 297 296 295 294 292 291 291 290
Height
1525 1524 1523 1522 1521 1520 1519 1519 1518 1517 1517 1516 1515 1514 1513 1513 1512 1511 1510 1509 1508 1507 1506 1505 1504 1503 1502 1501 1500 1500 1499 1498 1497 1496 1496 1495 1494 1493 1493 1492 1491 1490 1490 1489 1488 1488 1487 1486 1485 1484 1483 1483 1482 1481 1480 1478 1477 1476 1475 1474 1473 1472 1472 1471 1471 1470 1470 1470 1469
1523 1523 1522 1521 1520 1519 1518 1518 1517 1516 1515 1515 1514 1513 1512 1511 1510 1509 1508 1507 1506 1505 1504 1503 1503 1502 1501 1500 1499 1498 1498 1497 1496 1495 1495 1494 1493 1492 1491 1490 1489 1488 1488 1487 1487 1486 1485 1484 1483 1483 1482 1481 1480 1479 1478 1477 1475 1474 1473 1472 1471 1470 1470 1469 1469 1469 1469 1468 1468
1522 1521 1520 1520 1519 1518 1518 1517 1516 1515 1514 1513 1512 1511 1510 1509 1508 1508 1507 1506 1505 1504 1503 1502 1501 1501 1500 1499 1498 1498 1497 1496 1495 1494 1493 1493 1492 1491 1490 1489 1488 1487 1487 1486 1485 1484 1483 1483 1482 1481 1480 1480 1478 1478 1477 1475 1473 1473 1472 1470 1469 1469 1468 1468 1468 1468 1467 1467 1467
1521 1520 1519 1518 1518 1517 1516 1515 1514 1513 1513 1512 1511 1510 1509 1508 1507 1506 1505 1504 1503 1503 1502 1501 1500 1499 1498 1498 1497 1496 1495 1495 1494 1493 1492 1491 1490 1489 1488 1488 1487 1486 1485 1484 1483 1483 1482 1481 1480 1479 1478 1478 1477 1476 1475 1474 1472 1471 1470 1469 1468 1468 1467 1467 1466 1466 1466 1466 1466
1520 1519 1518 1517 1517 1516 1515 1514 1513 1512 1511 1510 1509 1508 1507 1507 1506 1505 1504 1503 1502 1502 1501 1500 1499 1498 1497 1496 1496 1495 1494 1493 1492 1491 1490 1489 1489 1488 1487 1486 1485 1484 1484 1483 1482 1481 1480 1479 1478 1478 1477 1476 1475 1474 1473 1472 1471 1470 1469 1468 1468 1467 1467 1466 1466 1465 1465 1465 1465
1519 1518 1517 1516 1516 1515 1514 1513 1512 1511 1509 1508 1508 1507 1506 1505 1504 1503 1503 1502 1501 1500 1499 1498 1498 1497 1496 1495 1494 1493 1492 1491 1490 1490 1489 1488 1487 1486 1486 1485 1484 1483 1482 1481 1481 1479 1478 1477 1476 1475 1475 1474 1473 1472 1471 1471 1470 1469 1468 1467 1467 1466 1466 1466 1465 1464 1464 1464 1464
1518 1517 1516 1515 1514 1513 1513 1511 1510 1509 1508 1507 1506 1505 1504 1503 1503 1502 1501 1500 1499 1498 1497 1496 1495 1495 1494 1493 1492 1491 1490 1489 1488 1488 1487 1487 1486 1485 1484 1483 1483 1482 1481 1480 1479 1478 1477 1475 1474 1473 1473 1472 1471 1471 1470 1469 1468 1468 1467 1466 1466 1465 1465 1464 1464 1464 1463 1463 1463
1516 1516 1515 1514 1513 1512 1511 1510 1509 1508 1507 1505 1504 1503 1503 1502 1501 1500 1499 1498 1497 1496 1495 1494 1493 1493 1492 1491 1490 1489 1488 1487 1487 1486 1486 1485 1484 1483 1483 1482 1481 1480 1479 1478 1478 1476 1475 1474 1473 1472 1472 1471 1470 1469 1468 1467 1467 1466 1466 1465 1465 1465 1464 1464 1463 1463 1463 1462 1462
1515 1514 1513 1513 1512 1510 1509 1508 1507 1506 1505 1504 1503 1502 1501 1500 1499 1498 1497 1496 1495 1494 1493 1493 1491 1490 1490 1489 1488 1487 1486 1485 1485 1484 1484 1483 1483 1482 1481 1480 1479 1478 1477 1476 1475 1474 1473 1473 1472 1471 1470 1469 1468 1467 1467 1466 1465 1465 1464 1464 1464 1463 1463 1463 1463 1462 1462 1461 1461
1514 1513 1512 1511 1510 1509 1508 1507 1506 1505 1503 1502 1501 1500 1499 1498 1498 1497 1496 1495 1494 1493 1492 1491 1490 1489 1488 1487 1486 1485 1484 1484 1483 1483 1482 1481 1481 1480 1479 1478 1477 1476 1476 1475 1474 1473 1472 1472 1471 1471 1470 1468 1467 1466 1465 1464 1464 1463 1463 1463 1462 1462 1462 1462 1462 1461 1461 1460 1460
1513 1511 1510 1509 1508 1507 1506 1505 1504 1503 1502 1501 1500 1499 1498 1497 1496 1495 1494 1493 1492 1491 1490 1490 1489 1488 1487 1486 1485 1484 1483 1483 1482 1481 1481 1480 1479 1478 1478 1477 1476 1475 1474 1473 1473 1472 1471 1470 1470 1469 1468 1467 1466 1465 1463 1463 1462 1462 1461 1461 1461 1461 1461 1460 1460 1460 1459 1459 1458
1511 1510 1509 1508 1507 1506 1505 1503 1503 1502 1500 1499 1498 1497 1496 1495 1494 1493 1493 1492 1491 1490 1489 1488 1488 1486 1485 1484 1483 1482 1482 1481 1480 1480 1479 1478 1478 1477 1476 1475 1474 1473 1473 1472 1471 1470 1469 1469 1468 1468 1467 1465 1464 1463 1462 1461 1461 1460 1460 1460 1459 1459 1459 1459 1458 1458 1458 1457 1457
1509 1508 1507 1506 1505 1504 1503 1502 1501 1500 1499 1498 1497 1496 1495 1494 1493 1492 1491 1490 1489 1488 1488 1487 1486 1485 1484 1483 1482 1481 1480 1479 1479 1478 1477 1477 1476 1475 1474 1473 1473 1472 1471 1469 1468 1468 1468 1467 1467 1466 1465 1464 1463 1462 1461 1460 1459 1459 1458 1458 1458 1458 1458 1457 1457 1456 1456 1456 1455
1508 1507 1506 1505 1503 1502 1501 1500 1499 1498 1497 1496 1495 1494 1493 1492 1491 1490 1489 1488 1487 1486 1486 1485 1484 1483 1483 1481 1480 1479 1478 1478 1477 1476 1476 1475 1474 1473 1472 1471 1470 1469 1468 1467 1466 1466 1465 1464 1464 1463 1463 1462 1461 1460 1459 1458 1458 1457 1457 1457 1457 1457 1456 1455 1455 1454 1454 1453 1453
1506 1505 1504 1503 1502 1501 1499 1498 1497 1496 1495 1494 1493 1492 1491 1490 1489 1488 1487 1486 1485 1484 1484 1483 1483 1482 1481 1479 1478 1477 1477 1476 1475 1474 1473 1473 1472 1470 1469 1468 1467 1466 1465 1464 1463 1463 1463 1462 1462 1461 1460 1459 1459 1458 1457 1456 1456 1455 1455 1454 1454 1454 1453 1453 1453 1452 1452 1451 1451
1505 1503 1503 1501 1500 1499 1498 1497 1495 1494 1493 1492 1491 1490 1488 1488 1487 1486 1485 1483 1483 1483 1482 1481 1481 1480 1479 1478 1477 1475 1475 1474 1473 1473 1471 1470 1469 1468 1467 1466 1465 1464 1463 1462 1462 1461 1460 1460 1459 1459 1458 1457 1457 1456 1455 1454 1453 1452 1452 1452 1452 1451 1451 1451 1450 1450 1449 1449 1449
1503 1502 1501 1500 1498 1497 1496 1495 1493 1492 1491 1490 1489 1488 1487 1486 1485 1484 1483 1481 1481 1480 1480 1479 1478 1477 1476 1475 1475 1474 1473 1472 1471 1470 1469 1468 1467 1466 1465 1464 1463 1462 1461 1461 1460 1459 1459 1458 1458 1457 1456 1455 1455 1454 1453 1452 1452 1451 1450 1450 1450 1449 1449 1449 1448 1448 1448 1448 1447
1501 1500 1499 1498 1497 1496 1494 1493 1492 1491 1490 1489 1488 1487 1486 1485 1484 1483 1482 1480 1479 1478 1478 1477 1476 1475 1474 1473 1473 1472 1471 1470 1469 1468 1467 1466 1465 1464 1463 1463 1462 1461 1460 1459 1458 1458 1458 1457 1456 1456 1455 1454 1453 1453 1452 1452 1451 1451 1450 1450 1449 1449 1448 1448 1448 1447 1447 1447 1446
1500 1498 1498 1496 1495 1494 1493 1492 1490 1490 1489 1488 1487 1486 1485 1484 1483 1482 1481 1479 1477 1476 1476 1475 1474 1473 1473 1472 1471 1470 1469 1468 1468 1467 1466 1465 1464 1463 1462 1461 1460 1459 1458 1458 1457 1457 1456 1456 1455 1454 1454 1453 1453 1452 1451 1451 1450 1449 1449 1448 1448 1447 1447 1447 1446 1446 1445 1445 1445
1498 1497 1496 1495 1494 1493 1491 1490 1489 1488 1488 1487 1486 1484 1483 1483 1481 1480 1479 1478 1476 1475 1474 1474 1473 1472 1471 1470 1470 1469 1468 1467 1466 1465 1464 1463 1462 1461 1460 1459 1458 1458 1457 1456 1456 1455 1454 1454 1453 1453 1452 1451 1451 1450 1449 1448 1448 1447 1447 1446 1446 1445 1445 1444 1444 1443 1443 1443 1443
1496 1495 1494 1493 1492 1491 1490 1488 1488 1487 1486 1485 1484 1483 1482 1481 1480 1478 1477 1476 1475 1474 1473 1473 1472 1471 1470 1469 1468 1468 1467 1466 1465 1464 1463 1461 1460 1459 1458 1458 1457 1456 1455 1454 1454 1453 1453 1452 1451 1451 1450 1449 1448 1448 1447 1446 1446 1445 1445 1444 1444 1443 1443 1442 1442 1442 1441 1441 1441
1495 1494 1493 1491 1490 1489 1488 1487 1486 1486 1485 1484 1483 1482 1480 1479 1478 1477 1476 1475 1474 1473 1472 1471 1470 1470 1469 1468 1467 1466 1465 1464 1463 1462 1461 1460 1459 1458 1457 1456 1455 1454 1454 1453 1453 1452 1451 1451 1450 1449 1448 1448 1447 1446 1446 1445 1444 1444 1443 1443 1443 1442 1441 1441 1440 1440 1440 1439 1439
1494 1493 1492 1491 1489 1488 1487 1486 1485 1484 1484 1483 1482 1481 1479 1478 1477 1476 1475 1474 1473 1472 1471 1470 1469 1468 1468 1467 1466 1465 1464 1463 1462 1461 1460 1460 1459 1458 1457 1456 1455 1454 1453 1453 1452 1451 1451 1450 1449 1448 1448 1447 1446 1445 1444 1444 1443 1443 1443 1442 1442 1441 1441 1440 1440 1439 1439 1438 1438
1493 1492 1491 1490 1489 1488 1487 1485 1484 1483 1483 1482 1481 1479 1478 1476 1475 1474 1473 1473 1472 1471 1470 1469 1468 1468 1467 1466 1465 1464 1463 1463 1462 1461 1460 1459 1458 1458 1457 1456 1455 1454 1453 1453 1452 1450 1449 1449 1448 1447 1446 1446 1445 1444 1443 1443 1442 1442 1441 1441 1441 1440 1439 1439 1438 1438 1437 1437 1436
1492 1491 1490 1488 1488 1486 1485 1484 1483 1482 1481 1480 1479 1478 1477 1476 1474 1473 1473 1472 1471 1470 1469 1469 1468 1467 1466 1465 1464 1464 1463 1462 1462 1461 1460 1459 1458 1458 1457 1456 1454 1453 1453 1452 1450 1449 1448 1448 1447 1446 1445 1444 1444 1443 1442 1442 1441 1440 1440 1439 1439 1438 1438 1437 1436 1436 1435 1434 1434
1490 1489 1488 1487 1486 1485 1484 1483 1482 1481 1480 1479 1478 1477 1476 1475 1474 1473 1473 1472 1471 1470 1469 1469 1468 1467 1466 1465 1464 1463 1463 1462 1461 1460 1459 1458 1458 1457 1456 1455 1454 1453 1451 1450 1448 1448 1447 1446 1446 1445 1444 1443 1443 1442 1441 1440 1439 1439 1438 1438 1437 1436 1436 1435 1434 1433 1433 1433 1432
1488 1487 1486 1485 1485 1484 1483 1482 1481 1480 1478 1478 1477 1477 1476 1475 1474 1473 1472 1472 1471 1470 1469 1468 1468 1467 1465 1464 1463 1463 1462 1461 1460 1459 1459 1458 1457 1456 1455 1454 1453 1452 1451 1449 1448 1447 1446 1445 1444 1444 1443 1442 1441 1440 1439 1439 1438 1437 1437 1436 1435 1435 1434 1433 1433 1432 1431 1430 1430
1486 1485 1484 1483 1483 1482 1482 1481 1480 1478 1478 1477 1476 1475 1475 1474 1473 1473 1472 1471 1470 1469 1468 1468 1467 1466 1465 1464 1463 1462 1461 1460 1459 1459 1458 1457 1456 1455 1454 1453 1452 1451 1450 1448 1447 1446 1445 1444 1443 1443 1442 1441 1440 1439 1438 1437 1436 1435 1435 1434 1433 1433 1432 1432 1431 1430 1429 1428 1428
1484 1483 1482 1482 1481 1481 1480 1479 1478 1477 1476 1476 1475 1474 1474 1473 1473 1472 1471 1470 1469 1469 1468 1467 1466 1465 1464 1463 1463 1461 1460 1460 1459 1458 1457 1456 1455 1454 1453 1452 1452 1450 1449 1447 1446 1445 1444 1443 1443 1442 1441 1440 1438 1438 1437 1435 1434 1434 1433 1432 1432 1431 1430 1430 1429 1428 1427 1427 1426
1482 1481 1480 1479 1479 1479 1478 1478 1477 1476 1475 1474 1474 1473 1473 1473 1472 1471 1470 1469 1469 1468 1467 1466 1465 1465 1464 1463 1462 1461 1460 1459 1458 1457 1456 1455 1454 1453 1452 1451 1450 1449 1448 1445 1444 1444 1443 1442 1441 1440 1439 1438 1437 1436 1435 1434 1433 1432 1431 1430 1429 1429 1428 1428 1427 1426 1425 1425 1424
1480 1479 1478 1478 1477 1477 1477 1476 1475 1475 1474 1473 1473 1473 1472 1471 1471 1470 1469 1469 1468 1467 1466 1465 1464 1463 1463 1462 1461 1460 1459 1458 1457 1456 1455 1454 1453 1452 1451 1450 1449 1448 1447 1444 1443 1443 1442 1441 1440 1438 1438 1436 1435 1434 1433 1432 1431 1430 1429 1428 1427 1426 1426 1425 1424 1424 1423 1423 1422
1478 1477 1476 1476 1476 1475 1475 1475 1474 1473 1473 1473 1472 1472 1471 1470 1470 1469 1468 1468 1467 1466 1465 1464 1463 1463 1462 1461 1460 1459 1458 1457 1456 1455 1453 1453 1452 1450 1449 1448 1448 1447 1445 1443 1442 1441 1440 1439 1438 1437 1436 1435 1433 1432 1431 1430 1429 1428 1427 1426 1425 1424 1424 1423 1423 1422 1421 1421 1420
1476 1475 1474 1474 1474 1474 1474 1473 1473 1473 1472 1471 1471 1470 1470 1469 1468 1468 1467 1467 1466 1465 1464 1463 1463 1462 1461 1460 1458 1458 1457 1456 1454 1453 1452 1451 1450 1449 1448 1447 1447 1445 1444 1442 1441 1440 1438 1438 1436 1435 1434 1433 1432 1430 1429 1428 1427 1426 1425 1424 1423 1423 1422 1422 1421 1420 1419 1419 1418
1473 1472 1472 1472 1473 1473 1473 1472 1472 1472 1471 1470 1470 1469 1469 1468 1468 1467 1466 1465 1465 1464 1463 1463 1462 1461 1460 1458 1458 1456 1455 1454 1453 1452 1451 1450 1449 1448 1447 1446 1445 1444 1442 1440 1439 1438 1437 1436 1435 1433 1432 1431 1430 1428 1427 1426 1425 1424 1423 1422 1422 1421 1420 1420 1419 1418 1418 1417 1416
1470 1470 1470 1470 1471 1471 1471 1471 1471 1470 1470 1469 1469 1468 1468 1467 1466 1466 1465 1464 1464 1463 1462 1461 1460 1459 1458 1457 1456 1455 1454 1453 1452 1451 1450 1448 1448 1447 1445 1444 1444 1443 1441 1439 1437 1436 1435 1434 1433 1432 1430 1429 1428 1427 1425 1424 1423 1422 1421 1421 1420 1419 1419 1418 1417 1417 1416 1415 1414
1468 1468 1468 1468 1469 1469 1469 1469 1470 1469 1469 1468 1468 1467 1467 1466 1465 1465 1464 1463 1463 1462 1461 1460 1459 1458 1457 1456 1455 1454 1453 1452 1450 1449 1448 1447 1446 1445 1444 1443 1442 1441 1440 1438 1436 1434 1433 1432 1431 1429 1428 1427 1426 1424 1423 1422 1421 1420 1419 1419 1418 1417 1417 1416 1415 1414 1413 1413 1412
1467 1466 1466 1467 1468 1468 1468 1468 1468 1468 1468 1467 1467 1466 1465 1465 1464 1464 1463 1462 1462 1461 1460 1459 1458 1457 1456 1455 1454 1453 1452 1450 1449 1448 1447 1445 1444 1443 1442 1441 1440 1439 1438 1437 1435 1433 1431 1430 1429 1428 1427 1425 1424 1423 1422 1420 1419 1418 1418 1417 1416 1415 1414 1414 1413 1412 1411 1410 1409
1466 1465 1465 1466 1466 1467 1467 1467 1467 1467 1466 1466 1465 1465 1464 1464 1463 1463 1462 1461 1460 1459 1458 1458 1457 1456 1454 1453 1452 1451 1450 1449 1448 1447 1445 1444 1443 1442 1441 1439 1438 1437 1436 1434 1433 1431 1430 1428 1427 1426 1425 1424 1423 1421 1420 1419 1418 1416 1415 1414 1413 1413 1412 1411 1410 1409 1408 1408 1407
1465 1465 1464 1465 1465 1466 1466 1466 1466 1465 1465 1465 1464 1464 1463 1463 1462 1462 1461 1460 1459 1458 1457 1456 1455 1454 1453 1452 1451 1450 1449 1448 1447 1446 1444 1443 1442 1440 1439 1437 1436 1435 1433 1432 1431 1430 1428 1427 1425 1424 1423 1423 1421 1420 1418 1417 1416 1414 1413 1412 1411 1410 1409 1409 1408 1407 1406 1406 1405
1464 1464 1464 1464 1464 1465 1465 1465 1465 1464 1464 1464 1464 1463 1463 1462 1461 1460 1460 1459 1458 1457 1456 1455 1454 1453 1452 1451 1450 1448 1447 1446 1445 1444 1443 1441 1440 1438 1437 1435 1434 1433 1432 1431 1430 1428 1427 1425 1424 1423 1422 1421 1420 1418 1417 1415 1414 1413 1411 1411 1410 1409 1408 1407 1406 1405 1404 1404 1403
1463 1463 1463 1463 1464 1464 1464 1464 1464 1464 1464 1463 1463 1462 1461 1461 1460 1459 1458 1458 1457 1456 1455 1454 1453 1452 1451 1449 1448 1447 1446 1445 1443 1442 1441 1439 1438 1436 1435 1434 1432 1431 1430 1430 1429 1428 1426 1424 1423 1422 1420 1420 1418 1417 1416 1414 1413 1411 1410 1409 1408 1408 1406 1405 1404 1403 1403 1402 1401